SOYUZ-MS 11 (43756 NORAD) Tracking and Keplerian Element Data

This shows tracking and keplerian element data for the satellite.

Feedback or suggestion? Click here.




ElementValue
Catalog43756
NameSOYUZ-MS 11
Epoch Orbit745
Epoch Day20.40714528
Epoch Year2019
RAAN16.2369
Inclination51.6428
Eccentricity0.0004655
Argument of Perigee289.2262
Mean Anonmoly219.4846
Mean Motion15.53163963
Decay Rate1.167E-05
L11 43756U 18098A 19020.40714528 .00001167 00000-0 25685-4 0 9999
L22 43756 51.6428 16.2369 0004655 289.2262 219.4846 15.53163963 7453

Live tracking and technical data element details for SOYUZ-MS 11 (NORAD 43756). SOYUZ-MS 11 can be tracked NOW for your location showing map with azimuth and elevation plus other details from your city location.

Track the satellite on the map from your city or location and see movement details for azimuth, elevation, latitude, longitude, range, height, and movement on the map or in text.







IsCatalogInMostPopularTable: catalog: 43756, numindb: 25
Update: records affected: 1



GetName: 43756 SOYUZ-MS 11

Hit Count: updated at: Wed, 23 Jan 2019 02:46:33 GMT